| time (UTC) | temp F | wind direction | speed knots | gust knots | rain 1hr in | rain 24hr in | rain mn in | humidity % | barometer mb |
| 20260510175503 | 55 | 34 | 7.8 | 21.7 | 0.00 | 0.00 | 0.00 | 59 | 1014.2 |
| 20260510175004 | 55 | 11 | 8.7 | 24.3 | 0.00 | 0.00 | 0.00 | 60 | 1015.2 |
| 20260510174504 | 55 | 53 | 11.3 | 24.3 | 0.00 | 0.00 | 0.00 | 59 | 1015.2 |
| 20260510174004 | 55 | 12 | 4.3 | 13.9 | 0.00 | 0.00 | 0.00 | 59 | 1015.2 |
| 20260510173505 | 55 | 38 | 4.3 | 26.1 | 0.00 | 0.00 | 0.00 | 59 | 1015.2 |
| 20260510172503 | 55 | 80 | 10.4 | 24.3 | 0.00 | 0.00 | 0.00 | 60 | 1015.2 |
| 20260510172004 | 55 | 34 | 7.8 | 13.0 | 0.00 | 0.00 | 0.00 | 60 | 1014.6 |
| 20260510171503 | 56 | 358 | 5.2 | 7.0 | 0.00 | 0.00 | 0.00 | 60 | 1014.6 |
| 20260510170504 | 55 | 69 | 10.4 | 20.0 | 0.00 | 0.00 | 0.00 | 60 | 1014.6 |
| 20260510170005 | 55 | 18 | 7.8 | 26.1 | 0.00 | 0.00 | 0.00 | 61 | 1015.2 |
| 20260510165505 | 55 | 96 | 7.0 | 26.1 | 0.00 | 0.00 | 0.00 | 60 | 1015.6 |
| 20260510164505 | 55 | 69 | 5.2 | 15.6 | 0.00 | 0.00 | 0.00 | 62 | 1014.9 |
| 20260510164004 | 55 | 108 | 11.3 | 15.6 | 0.00 | 0.00 | 0.00 | 63 | 1015.6 |
| 20260510163504 | 55 | 113 | 4.3 | 20.0 | 0.00 | 0.00 | 0.00 | 64 | 1014.9 |
| 20260510163004 | 55 | 94 | 7.0 | 20.0 | 0.00 | 0.00 | 0.00 | 63 | 1015.6 |
| 20260510162505 | 55 | 51 | 8.7 | 13.9 | 0.00 | 0.00 | 0.00 | 64 | 1015.9 |
| 20260510162004 | 55 | 39 | 5.2 | 13.9 | 0.00 | 0.00 | 0.00 | 63 | 1015.9 |
| 20260510161504 | 55 | 90 | 7.0 | 13.9 | 0.00 | 0.00 | 0.00 | 65 | 1015.9 |
| 20260510161003 | 55 | 17 | 7.8 | 21.7 | 0.00 | 0.00 | 0.00 | 65 | 1015.9 |
| 20260510160504 | 55 | 71 | 13.9 | 21.7 | 0.00 | 0.00 | 0.00 | 65 | 1015.9 |
| 20260510160004 | 55 | 107 | 8.7 | 15.6 | 0.00 | 0.00 | 0.00 | 65 | 1015.9 |
| 20260510155005 | 54 | 92 | 4.3 | 18.2 | 0.00 | 0.00 | 0.00 | 66 | 1015.6 |
| 20260510154505 | 54 | 58 | 10.4 | 20.0 | 0.00 | 0.00 | 0.00 | 67 | 1016.3 |
| 20260510153504 | 54 | 15 | 2.6 | 21.7 | 0.00 | 0.00 | 0.00 | 67 | 1016.3 |
| 20260510153004 | 54 | 32 | 12.2 | 21.7 | 0.00 | 0.00 | 0.00 | 67 | 1016.3 |
| 20260510152505 | 54 | 44 | 12.2 | 18.2 | 0.00 | 0.00 | 0.00 | 67 | 1016.3 |
| 20260510151005 | 54 | 53 | 11.3 | 24.3 | 0.00 | 0.00 | 0.00 | 69 | 1016.6 |
| 20260510150004 | 55 | 30 | 8.7 | 21.7 | 0.00 | 0.00 | 0.00 | 68 | 1016.6 |
| 20260510145504 | 55 | 106 | 8.7 | 21.7 | 0.00 | 0.00 | 0.00 | 68 | 1016.6 |
| 20260510145004 | 55 | 57 | 12.2 | 18.2 | 0.00 | 0.00 | 0.00 | 68 | 1016.6 |
| 20260510144004 | 54 | 40 | 4.3 | 13.0 | 0.00 | 0.00 | 0.00 | 69 | 1016.3 |
| 20260510143503 | 55 | 31 | 7.8 | 13.0 | 0.00 | 0.00 | 0.00 | 68 | 1016.3 |
| 20260510143004 | 54 | 58 | 6.1 | 7.0 | 0.00 | 0.00 | 0.00 | 68 | 1016.6 |
| 20260510142503 | 54 | 83 | 5.2 | 15.6 | 0.00 | 0.00 | 0.00 | 68 | 1016.6 |
| 20260510142005 | 55 | 68 | 8.7 | 15.6 | 0.00 | 0.00 | 0.00 | 69 | 1017.3 |
| 20260510140005 | 54 | 30 | 7.0 | 18.2 | 0.00 | 0.00 | 0.00 | 69 | 1017.3 |
| 20260510135503 | 54 | 35 | 7.0 | 20.0 | 0.00 | 0.00 | 0.00 | 69 | 1017.3 |
| 20260510135004 | 54 | 129 | 10.4 | 20.0 | 0.00 | 0.00 | 0.00 | 70 | 1017.3 |
| 20260510134503 | 54 | 85 | 6.1 | 18.2 | 0.00 | 0.00 | 0.00 | 70 | 1016.7 |
| 20260510133004 | 55 | 42 | 7.0 | 26.1 | 0.00 | 0.00 | 0.00 | 69 | 1017.4 |
| 20260510132504 | 55 | 46 | 6.1 | 21.7 | 0.00 | 0.00 | 0.00 | 69 | 1016.9 |
| 20260510131504 | 55 | 58 | 4.3 | 18.2 | 0.00 | 0.00 | 0.00 | 68 | 1016.9 |
| 20260510131005 | 56 | 57 | 12.2 | 20.0 | 0.00 | 0.00 | 0.00 | 68 | 1017.3 |
| 20260510130503 | 56 | 50 | 8.7 | 20.0 | 0.00 | 0.00 | 0.00 | 68 | 1017.0 |
| 20260510130004 | 55 | 45 | 8.7 | 18.2 | 0.00 | 0.00 | 0.00 | 69 | 1016.8 |
| 20260510125004 | 55 | 55 | 7.8 | 20.0 | 0.00 | 0.00 | 0.00 | 70 | 1017.5 |
| 20260510124504 | 55 | 27 | 9.6 | 20.0 | 0.00 | 0.00 | 0.00 | 70 | 1017.0 |
| 20260510124004 | 56 | 79 | 7.8 | 20.0 | 0.00 | 0.00 | 0.00 | 70 | 1017.6 |
| 20260510123504 | 55 | 52 | 9.6 | 21.7 | 0.00 | 0.00 | 0.00 | 70 | 1017.6 |
| 20260510123004 | 55 | 23 | 8.7 | 21.7 | 0.00 | 0.00 | 0.00 | 71 | 1017.6 |
| 20260510122503 | 54 | 22 | 7.8 | 26.1 | 0.00 | 0.00 | 0.00 | 72 | 1016.9 |
| 20260510122005 | 54 | 31 | 11.3 | 26.1 | 0.00 | 0.00 | 0.00 | 72 | 1017.6 |
| 20260510121504 | 55 | 24 | 9.6 | 24.3 | 0.00 | 0.00 | 0.00 | 71 | 1016.9 |
| 20260510121003 | 55 | 37 | 10.4 | 24.3 | 0.00 | 0.00 | 0.00 | 71 | 1017.6 |
| 20260510120004 | 56 | 21 | 12.2 | 20.0 | 0.00 | 0.00 | 0.00 | 69 | 1017.6 |
| 20260510115505 | 56 | 56 | 5.2 | 11.3 | 0.00 | 0.00 | 0.00 | 69 | 1016.9 |
| 20260510115004 | 56 | 49 | 7.8 | 21.7 | 0.00 | 0.00 | 0.00 | 69 | 1016.9 |
| 20260510114504 | 57 | 45 | 7.0 | 21.7 | 0.00 | 0.00 | 0.00 | 68 | 1017.3 |
| 20260510114005 | 56 | 93 | 7.8 | 18.2 | 0.00 | 0.00 | 0.00 | 66 | 1017.6 |
| 20260510113505 | 56 | 33 | 10.4 | 20.0 | 0.00 | 0.00 | 0.00 | 66 | 1017.3 |
| 20260510113003 | 56 | 28 | 8.7 | 20.0 | 0.00 | 0.00 | 0.00 | 66 | 1017.9 |
| 20260510111505 | 56 | 18 | 11.3 | 21.7 | 0.00 | 0.00 | 0.00 | 67 | 1017.6 |
| 20260510111005 | 56 | 37 | 8.7 | 30.4 | 0.00 | 0.00 | 0.00 | 68 | 1017.9 |
| 20260510110504 | 56 | 89 | 17.4 | 30.4 | 0.00 | 0.00 | 0.00 | 67 | 1017.9 |
| 20260510110005 | 56 | 53 | 4.3 | 24.3 | 0.00 | 0.00 | 0.00 | 68 | 1017.9 |
| 20260510105504 | 55 | 32 | 12.2 | 24.3 | 0.00 | 0.00 | 0.00 | 69 | 1017.9 |
| 20260510104004 | 56 | 66 | 13.0 | 30.4 | 0.00 | 0.00 | 0.00 | 65 | 1017.9 |
| 20260510103505 | 56 | 61 | 15.6 | 30.4 | 0.00 | 0.00 | 0.00 | 64 | 1018.3 |
| 20260510101504 | 56 | 127 | 6.1 | 13.0 | 0.00 | 0.00 | 0.00 | 66 | 1017.9 |
| 20260510100004 | 56 | 38 | 13.9 | 30.4 | 0.00 | 0.00 | 0.00 | 65 | 1017.9 |
| 20260510095504 | 56 | 69 | 6.1 | 13.0 | 0.00 | 0.00 | 0.00 | 65 | 1017.9 |
| 20260510095004 | 56 | 66 | 11.3 | 13.0 | 0.00 | 0.00 | 0.00 | 66 | 1018.3 |
| 20260510094003 | 55 | 62 | 12.2 | 21.7 | 0.00 | 0.00 | 0.00 | 67 | 1018.3 |
| 20260510093504 | 55 | 26 | 12.2 | 21.7 | 0.00 | 0.00 | 0.00 | 67 | 1018.3 |
| 20260510093004 | 55 | 19 | 8.7 | 20.0 | 0.00 | 0.00 | 0.00 | 67 | 1017.9 |
| 20260510092504 | 56 | 118 | 13.0 | 20.0 | 0.00 | 0.00 | 0.00 | 67 | 1018.3 |
| 20260510092004 | 55 | 90 | 7.8 | 24.3 | 0.00 | 0.00 | 0.00 | 69 | 1018.3 |
| 20260510091504 | 55 | 43 | 12.2 | 32.2 | 0.00 | 0.00 | 0.00 | 69 | 1018.3 |
| 20260510091004 | 54 | 50 | 6.1 | 32.2 | 0.00 | 0.00 | 0.00 | 70 | 1018.6 |
| 20260510090504 | 54 | 74 | 13.0 | 32.2 | 0.00 | 0.00 | 0.00 | 69 | 1018.3 |
| 20260510090004 | 54 | 62 | 13.9 | 24.3 | 0.00 | 0.00 | 0.00 | 70 | 1018.6 |
| 20260510085504 | 54 | 75 | 7.0 | 24.3 | 0.00 | 0.00 | 0.00 | 70 | 1018.6 |
| 20260510085003 | 54 | 33 | 7.0 | 15.6 | 0.00 | 0.00 | 0.00 | 71 | 1018.6 |
| 20260510084504 | 54 | 14 | 8.7 | 15.6 | 0.00 | 0.00 | 0.00 | 71 | 1018.6 |
| 20260510084004 | 53 | 29 | 11.3 | 15.6 | 0.00 | 0.00 | 0.00 | 72 | 1018.3 |
| 20260510083504 | 52 | 101 | 8.7 | 21.7 | 0.00 | 0.00 | 0.00 | 74 | 1018.6 |
| 20260510083005 | 52 | 89 | 11.3 | 21.7 | 0.00 | 0.00 | 0.00 | 74 | 1019.0 |
| 20260510082504 | 52 | 82 | 13.0 | 21.7 | 0.00 | 0.00 | 0.00 | 74 | 1018.6 |
| 20260510082005 | 53 | 57 | 13.0 | 21.7 | 0.00 | 0.00 | 0.00 | 74 | 1019.0 |
| 20260510081005 | 52 | 48 | 13.0 | 20.0 | 0.00 | 0.00 | 0.00 | 74 | 1019.3 |
| 20260510080004 | 51 | 56 | 11.3 | 27.8 | 0.00 | 0.00 | 0.00 | 77 | 1019.0 |
| 20260510074004 | 51 | 65 | 18.2 | 26.1 | 0.00 | 0.00 | 0.00 | 78 | 1019.0 |
| 20260510073004 | 50 | 110 | 11.3 | 21.7 | 0.00 | 0.00 | 0.00 | 80 | 1019.0 |
| 20260510072504 | 50 | 123 | 12.2 | 21.7 | 0.00 | 0.00 | 0.00 | 80 | 1019.0 |
| 20260510072003 | 50 | 112 | 4.3 | 18.2 | 0.00 | 0.00 | 0.00 | 82 | 1018.6 |
| 20260510071503 | 49 | 115 | 6.1 | 7.8 | 0.00 | 0.00 | 0.00 | 83 | 1018.6 |
| 20260510071006 | 49 | 47 | 5.2 | 7.8 | 0.00 | 0.00 | 0.00 | 84 | 1018.0 |
| 20260510070504 | 49 | 73 | 7.0 | 18.2 | 0.00 | 0.00 | 0.00 | 84 | 1018.5 |
| 20260510070004 | 48 | 114 | 7.8 | 18.2 | 0.00 | 0.00 | 0.00 | 85 | 1018.6 |
| 20260510065505 | 48 | 38 | 6.1 | 15.6 | 0.00 | 0.00 | 0.00 | 85 | 1018.6 |
| 20260510065004 | 48 | 47 | 6.1 | 20.0 | 0.00 | 0.00 | 0.00 | 85 | 1018.4 |
| 20260510064505 | 48 | 61 | 5.2 | 20.0 | 0.00 | 0.00 | 0.00 | 86 | 1018.5 |
| 20260510064005 | 48 | 47 | 6.1 | 13.9 | 0.00 | 0.00 | 0.00 | 86 | 1017.9 |
| 20260510063505 | 48 | 36 | 4.3 | 12.2 | 0.00 | 0.00 | 0.00 | 86 | 1018.0 |
| 20260510062504 | 48 | 126 | 5.2 | 12.2 | 0.00 | 0.00 | 0.00 | 86 | 1018.6 |
| 20260510062004 | 48 | 66 | 5.2 | 8.7 | 0.00 | 0.00 | 0.00 | 86 | 1018.2 |
| 20260510061503 | 48 | 35 | 7.0 | 13.9 | 0.00 | 0.00 | 0.00 | 86 | 1017.9 |
| 20260510061005 | 48 | 1 | 5.2 | 13.9 | 0.00 | 0.00 | 0.00 | 86 | 1018.6 |
| 20260510060503 | 48 | 1 | 6.1 | 15.6 | 0.00 | 0.00 | 0.00 | 86 | 1018.6 |
| 20260510060005 | 48 | 0 | 7.0 | 15.6 | 0.00 | 0.00 | 0.00 | 87 | 1018.4 |
| 20260510055505 | 48 | 71 | 5.2 | 13.9 | 0.00 | 0.00 | 0.00 | 87 | 1017.4 |
| 20260510055004 | 48 | 79 | 4.3 | 13.9 | 0.00 | 0.00 | 0.00 | 87 | 1018.3 |
| 20260510054505 | 48 | 62 | 5.2 | 13.9 | 0.00 | 0.00 | 0.00 | 87 | 1018.6 |
| 20260510054004 | 48 | 54 | 5.2 | 13.9 | 0.00 | 0.00 | 0.00 | 88 | 1017.3 |
| 20260510053504 | 48 | 37 | 5.2 | 18.2 | 0.00 | 0.00 | 0.00 | 88 | 1018.6 |
| 20260510053004 | 47 | 35 | 7.8 | 18.2 | 0.00 | 0.00 | 0.00 | 88 | 1018.3 |
| 20260510052504 | 47 | 66 | 8.7 | 15.6 | 0.00 | 0.00 | 0.00 | 88 | 1018.6 |
| 20260510052004 | 47 | 70 | 7.0 | 12.2 | 0.00 | 0.00 | 0.00 | 88 | 1017.3 |
| 20260510051505 | 47 | 22 | 6.1 | 12.2 | 0.00 | 0.00 | 0.00 | 88 | 1017.6 |
| 20260510051004 | 47 | 33 | 8.7 | 12.2 | 0.00 | 0.00 | 0.00 | 88 | 1018.6 |
| 20260510050004 | 47 | 16 | 5.2 | 11.3 | 0.00 | 0.00 | 0.00 | 88 | 1017.3 |
| 20260510045505 | 47 | 19 | 4.3 | 20.0 | 0.00 | 0.00 | 0.00 | 88 | 1017.6 |
| 20260510045003 | 47 | 20 | 7.8 | 20.0 | 0.00 | 0.00 | 0.00 | 88 | 1018.6 |
| 20260510044504 | 47 | 37 | 5.2 | 13.9 | 0.00 | 0.00 | 0.00 | 88 | 1018.3 |
| 20260510044003 | 47 | 90 | 4.3 | 18.2 | 0.00 | 0.00 | 0.00 | 88 | 1017.3 |
| 20260510043504 | 47 | 50 | 6.1 | 18.2 | 0.00 | 0.00 | 0.00 | 88 | 1018.6 |
| 20260510043004 | 47 | 34 | 4.3 | 6.1 | 0.00 | 0.00 | 0.00 | 88 | 1017.3 |
| 20260510042504 | 47 | 0 | 2.6 | 6.1 | 0.00 | 0.00 | 0.00 | 88 | 1017.3 |
| 20260510041504 | 48 | 32 | 7.8 | 18.2 | 0.00 | 0.00 | 0.00 | 88 | 1018.3 |
| 20260510041003 | 48 | 35 | 11.3 | 18.2 | 0.00 | 0.00 | 0.00 | 88 | 1018.3 |
| 20260510040504 | 48 | 26 | 7.0 | 11.3 | 0.00 | 0.00 | 0.00 | 88 | 1017.3 |
| 20260510040005 | 48 | 25 | 5.2 | 13.9 | 0.00 | 0.00 | 0.00 | 87 | 1017.3 |
| 20260510035504 | 48 | 36 | 8.7 | 13.9 | 0.00 | 0.00 | 0.00 | 87 | 1018.6 |
| 20260510035006 | 48 | 13 | 6.1 | 8.7 | 0.00 | 0.00 | 0.00 | 87 | 1017.3 |
| 20260510034004 | 48 | 20 | 6.1 | 20.0 | 0.00 | 0.00 | 0.00 | 87 | 1017.6 |
| 20260510033504 | 48 | 24 | 8.7 | 20.0 | 0.00 | 0.00 | 0.00 | 87 | 1018.6 |
| 20260510033003 | 48 | 43 | 13.9 | 20.0 | 0.00 | 0.00 | 0.00 | 87 | 1018.6 |
| 20260510032504 | 48 | 15 | 6.1 | 20.0 | 0.00 | 0.00 | 0.00 | 87 | 1017.6 |
| 20260510032004 | 48 | 16 | 7.0 | 20.0 | 0.00 | 0.00 | 0.00 | 87 | 1019.0 |
| 20260510031504 | 48 | 82 | 6.1 | 21.7 | 0.00 | 0.00 | 0.00 | 87 | 1017.6 |
| 20260510030504 | 48 | 359 | 11.3 | 21.7 | 0.00 | 0.00 | 0.00 | 87 | 1019.0 |
| 20260510030004 | 48 | 44 | 12.2 | 18.2 | 0.00 | 0.00 | 0.00 | 87 | 1018.6 |
| 20260510025503 | 48 | 32 | 7.0 | 18.2 | 0.00 | 0.00 | 0.00 | 87 | 1017.9 |
| 20260510024504 | 48 | 339 | 11.3 | 21.7 | 0.00 | 0.00 | 0.00 | 86 | 1019.0 |
| 20260510023505 | 48 | 21 | 6.1 | 24.3 | 0.00 | 0.00 | 0.00 | 85 | 1017.6 |
| 20260510023005 | 48 | 46 | 17.4 | 24.3 | 0.00 | 0.00 | 0.00 | 85 | 1018.6 |
| 20260510022504 | 48 | 46 | 10.4 | 26.1 | 0.00 | 0.00 | 0.00 | 85 | 1018.6 |
| 20260510022005 | 49 | 61 | 13.0 | 26.1 | 0.00 | 0.00 | 0.00 | 85 | 1018.6 |
| 20260510021504 | 49 | 26 | 13.0 | 18.2 | 0.00 | 0.00 | 0.00 | 85 | 1018.6 |
| 20260510021005 | 49 | 33 | 6.1 | 20.0 | 0.00 | 0.00 | 0.00 | 85 | 1017.6 |
| 20260510020504 | 49 | 355 | 7.0 | 20.0 | 0.00 | 0.00 | 0.00 | 86 | 1018.6 |
| 20260510020004 | 49 | 48 | 7.8 | 15.6 | 0.00 | 0.00 | 0.00 | 86 | 1018.3 |
| 20260510015505 | 49 | 51 | 7.0 | 14.8 | 0.00 | 0.00 | 0.00 | 86 | 1017.6 |
| 20260510014504 | 49 | 38 | 10.4 | 15.6 | 0.00 | 0.00 | 0.00 | 85 | 1018.6 |
| 20260510014004 | 49 | 24 | 11.3 | 15.6 | 0.00 | 0.00 | 0.00 | 84 | 1018.6 |
| 20260510013004 | 49 | 42 | 6.1 | 13.9 | 0.00 | 0.00 | 0.00 | 83 | 1017.6 |
| 20260510012504 | 49 | 44 | 7.8 | 13.9 | 0.00 | 0.00 | 0.00 | 82 | 1019.0 |
| 20260510011504 | 50 | 32 | 7.8 | 20.0 | 0.00 | 0.00 | 0.00 | 78 | 1018.6 |
| 20260510011004 | 50 | 42 | 11.3 | 20.0 | 0.00 | 0.00 | 0.00 | 77 | 1018.6 |
| 20260510010504 | 50 | 340 | 13.9 | 20.0 | 0.00 | 0.00 | 0.00 | 75 | 1018.3 |
| 20260510010004 | 50 | 23 | 8.7 | 13.0 | 0.00 | 0.00 | 0.00 | 74 | 1017.6 |
| 20260510005504 | 51 | 38 | 5.2 | 18.2 | 0.00 | 0.00 | 0.00 | 73 | 1017.6 |
| 20260510005004 | 51 | 34 | 7.0 | 18.2 | 0.00 | 0.00 | 0.00 | 72 | 1018.6 |
| 20260510004504 | 51 | 13 | 10.4 | 13.9 | 0.00 | 0.00 | 0.00 | 71 | 1018.6 |
| 20260510004004 | 51 | 30 | 2.6 | 20.0 | 0.00 | 0.00 | 0.00 | 69 | 1017.9 |
| 20260510003505 | 51 | 46 | 11.3 | 20.0 | 0.00 | 0.00 | 0.00 | 67 | 1018.6 |
| 20260510003005 | 51 | 17 | 10.4 | 13.9 | 0.00 | 0.00 | 0.00 | 66 | 1018.6 |
| 20260510002503 | 52 | 33 | 10.4 | 13.9 | 0.00 | 0.00 | 0.00 | 65 | 1017.6 |
| 20260510002004 | 52 | 30 | 1.7 | 13.9 | 0.00 | 0.00 | 0.00 | 65 | 1019.0 |
| 20260510001504 | 52 | 19 | 2.6 | 13.9 | 0.00 | 0.00 | 0.00 | 64 | 1019.0 |
| 20260510001004 | 53 | 51 | 6.1 | 7.0 | 0.00 | 0.00 | 0.00 | 64 | 1017.9 |
| 20260510000505 | 53 | 53 | 5.2 | 7.0 | 0.00 | 0.00 | 0.00 | 64 | 1017.9 |
| 20260510000004 | 54 | 15 | 2.6 | 12.2 | 0.00 | 0.00 | 0.00 | 63 | 1017.9 |
| 20260509235504 | 54 | 82 | 7.0 | 12.2 | 0.00 | 0.00 | 0.00 | 61 | 1018.6 |
| 20260509235004 | 54 | 60 | 2.6 | 12.2 | 0.00 | 0.00 | 0.00 | 59 | 1018.6 |
| 20260509234505 | 54 | 63 | 5.2 | 12.2 | 0.00 | 0.00 | 0.00 | 59 | 1018.3 |
| 20260509234004 | 55 | 25 | 4.3 | 10.4 | 0.00 | 0.00 | 0.00 | 58 | 1017.6 |
| 20260509233505 | 55 | 68 | 6.1 | 11.3 | 0.00 | 0.00 | 0.00 | 57 | 1019.0 |
| 20260509233004 | 55 | 53 | 7.0 | 11.3 | 0.00 | 0.00 | 0.00 | 57 | 1017.6 |
| 20260509232504 | 55 | 61 | 2.6 | 4.3 | 0.00 | 0.00 | 0.00 | 57 | 1017.6 |
| 20260509232005 | 55 | 64 | 2.6 | 4.3 | 0.00 | 0.00 | 0.00 | 58 | 1017.6 |
| 20260509231004 | 55 | 61 | 10.4 | 15.6 | 0.00 | 0.00 | 0.00 | 58 | 1018.3 |
| 20260509230505 | 55 | 39 | 4.3 | 15.6 | 0.00 | 0.00 | 0.00 | 60 | 1018.6 |
| 20260509225005 | 55 | 79 | 0.9 | 6.1 | 0.00 | 0.00 | 0.00 | 59 | 1018.3 |
| 20260509224504 | 55 | 94 | 0.9 | 6.1 | 0.00 | 0.00 | 0.00 | 60 | 1018.4 |
| 20260509224004 | 55 | 85 | 3.5 | 10.4 | 0.00 | 0.00 | 0.00 | 59 | 1018.3 |
| 20260509223504 | 55 | 81 | 2.6 | 10.4 | 0.00 | 0.00 | 0.00 | 59 | 1017.8 |
| 20260509223004 | 55 | 59 | 5.2 | 10.4 | 0.00 | 0.00 | 0.00 | 59 | 1017.7 |
| 20260509222504 | 55 | 52 | 2.6 | 10.4 | 0.00 | 0.00 | 0.00 | 58 | 1017.9 |
| 20260509221505 | 55 | 84 | 2.6 | 7.0 | 0.00 | 0.00 | 0.00 | 59 | 1017.3 |
| 20260509221005 | 55 | 69 | 1.7 | 6.1 | 0.00 | 0.00 | 0.00 | 60 | 1017.4 |
| 20260509220506 | 55 | 55 | 1.7 | 6.1 | 0.00 | 0.00 | 0.00 | 61 | 1017.8 |
| 20260509220004 | 55 | 32 | 1.7 | 4.3 | 0.00 | 0.00 | 0.00 | 60 | 1017.4 |
| 20260509215003 | 56 | 32 | 1.7 | 6.1 | 0.00 | 0.00 | 0.00 | 58 | 1017.7 |
| 20260509214505 | 56 | 81 | 1.7 | 6.1 | 0.00 | 0.00 | 0.00 | 58 | 1018.3 |
| 20260509214004 | 56 | 82 | 0.9 | 1.7 | 0.00 | 0.00 | 0.00 | 57 | 1017.3 |
| 20260509213504 | 57 | 100 | 0.9 | 6.1 | 0.00 | 0.00 | 0.00 | 56 | 1017.6 |
| 20260509213004 | 57 | 63 | 2.6 | 10.4 | 0.00 | 0.00 | 0.00 | 56 | 1018.3 |
| 20260509212505 | 57 | 59 | 2.6 | 10.4 | 0.00 | 0.00 | 0.00 | 55 | 1017.9 |
| 20260509211504 | 57 | 48 | 4.3 | 12.2 | 0.00 | 0.00 | 0.00 | 55 | 1018.3 |
| 20260509210004 | 58 | 105 | 2.6 | 10.4 | 0.00 | 0.00 | 0.00 | 55 | 1017.9 |
| 20260509205504 | 58 | 46 | 4.3 | 8.7 | 0.00 | 0.00 | 0.00 | 54 | 1017.6 |
| 20260509205005 | 58 | 78 | 4.3 | 10.4 | 0.00 | 0.00 | 0.00 | 54 | 1017.3 |
| 20260509204004 | 59 | 42 | 1.7 | 7.8 | 0.00 | 0.00 | 0.00 | 54 | 1017.6 |
| 20260509203504 | 59 | 35 | 4.3 | 7.8 | 0.00 | 0.00 | 0.00 | 53 | 1017.3 |
| 20260509203004 | 60 | 56 | 2.6 | 4.3 | 0.00 | 0.00 | 0.00 | 52 | 1017.6 |
| 20260509202504 | 60 | 78 | 2.6 | 4.3 | 0.00 | 0.00 | 0.00 | 53 | 1017.6 |
| 20260509202004 | 60 | 74 | 0.0 | 6.1 | 0.00 | 0.00 | 0.00 | 53 | 1016.9 |
| 20260509201504 | 60 | 50 | 4.3 | 6.1 | 0.00 | 0.00 | 0.00 | 52 | 1017.3 |
| 20260509201004 | 61 | 66 | 1.7 | 4.3 | 0.00 | 0.00 | 0.00 | 52 | 1016.6 |
| 20260509200505 | 61 | 86 | 2.6 | 4.3 | 0.00 | 0.00 | 0.00 | 52 | 1016.6 |
| 20260509200005 | 62 | 56 | 1.7 | 10.4 | 0.00 | 0.00 | 0.00 | 51 | 1016.6 |
| 20260509195505 | 62 | 96 | 1.7 | 10.4 | 0.00 | 0.00 | 0.00 | 50 | 1017.3 |
| 20260509195004 | 62 | 102 | 2.6 | 10.4 | 0.00 | 0.00 | 0.00 | 50 | 1017.3 |
| 20260509194504 | 62 | 74 | 2.6 | 7.8 | 0.00 | 0.00 | 0.00 | 51 | 1016.6 |
| 20260509194004 | 63 | 60 | 5.2 | 7.8 | 0.00 | 0.00 | 0.00 | 51 | 1017.3 |
| 20260509193503 | 63 | 98 | 7.0 | 7.8 | 0.00 | 0.00 | 0.00 | 50 | 1016.9 |
| 20260509193004 | 63 | 44 | 1.7 | 10.4 | 0.00 | 0.00 | 0.00 | 51 | 1016.3 |
| 20260509192504 | 63 | 73 | 6.1 | 10.4 | 0.00 | 0.00 | 0.00 | 51 | 1016.6 |
| 20260509192004 | 64 | 99 | 1.7 | 2.6 | 0.00 | 0.00 | 0.00 | 51 | 1016.3 |
| 20260509191504 | 64 | 121 | 1.7 | 2.6 | 0.00 | 0.00 | 0.00 | 50 | 1016.3 |
| 20260509190505 | 64 | 119 | 2.6 | 7.8 | 0.00 | 0.00 | 0.00 | 51 | 1016.6 |
| 20260509190004 | 64 | 96 | 0.0 | 4.3 | 0.00 | 0.00 | 0.00 | 51 | 1016.9 |
| 20260509184504 | 65 | 34 | 2.6 | 12.2 | 0.00 | 0.00 | 0.00 | 49 | 1016.3 |
| 20260509183504 | 65 | 26 | 4.3 | 6.1 | 0.00 | 0.00 | 0.00 | 48 | 1016.6 |
| 20260509183004 | 65 | 47 | 4.3 | 7.0 | 0.00 | 0.00 | 0.00 | 48 | 1016.3 |
| 20260509182504 | 66 | 32 | 5.2 | 15.6 | 0.00 | 0.00 | 0.00 | 47 | 1015.9 |
| 20260509182005 | 66 | 87 | 4.3 | 15.6 | 0.00 | 0.00 | 0.00 | 46 | 1016.3 |
| 20260509181004 | 67 | 52 | 7.0 | 10.4 | 0.00 | 0.00 | 0.00 | 46 | 1016.3 |
| 20260509180504 | 67 | 102 | 5.2 | 10.4 | 0.00 | 0.00 | 0.00 | 47 | 1016.3 |
| 20260509180006 | 67 | 79 | 1.7 | 12.2 | 0.00 | 0.00 | 0.00 | 46 | 1015.9 |